Location: Unspecified
(22.6800°N, 112.2000°E)
Time: 21:38:23
(UTC+08:00)

Transit 4A - Pass Details

Date: 07 August 2021
Orbit: 871 x 974 km, 66.8° (Epoch: 21 September)

Event Time Altitude Azimuth Distance (km) Brightness Sun altitude
Exits shadow 23:00:52 13° 357° (N) 2,317 10.4 -44.5°
Drops below altitude 10° 23:01:31 10° 0° (N) 2,525 10.6 -44.6°
Sets 23:04:14 0° 10° (N) 3,458 11.4 -45.0°
